Weather History for Rome, OR

Change the Weather History Date:

Tuesday, November 20, 2012

  Actual Average Record
Temperature  
Mean Temperature 54 °F 35 °F  
Max Temperature 59 °F 47 °F 67 °F (1966)
Min Temperature 49 °F 22 °F 10 °F (2011)
Degree Days  
Heating Degree Days 11 30  
Month to date heating degree days 466 531  
Since 1 July heating degree days 1013 1288  
Cooling Degree Days 0 0  
Month to date cooling degree days 0 0  
Year to date cooling degree days 674 507  
Growing Degree Days 4 (Base 50)    
Moisture  
Dew Point 30 °F    
Average Humidity 41    
Maximum Humidity 50    
Minimum Humidity 31    
Precipitation  
Precipitation 0.00 in 0.02 in 0.37 in (1955)
Month to date precipitation 0.21 0.42  
Year to date precipitation 4.71 7.89  
Sea Level Pressure  
Sea Level Pressure 29.84 in    
Wind  
Wind Speed 21 mph (South)    
Max Wind Speed 37 mph    
Max Gust Speed 47 mph    
T = Trace of Precipitation, MM = Missing Value Source: NWS Daily Summary

Daily Weather History Graph

Daily Weather History Graph

Search for Another Location

Airport:

Trip Planner

Search our weather history database for the weather conditions in past years. The results will help you decide how hot, cold, wet, or windy it might be!

Date:

Astronomy

Nov. 20, 2012 Rise Set
Actual Time 6:49 AM PST 4:24 PM PST
Civil Twilight 6:18 AM PST 4:55 PM PST
Nautical Twilight 5:44 AM PST 5:29 PM PST
Astronomical Twilight 5:10 AM PST 6:03 PM PST
Moon 12:21 PM PST (11/20) No Moon Set
Length of Visible Light 10h 36m
Length of Day
9h 34m
First Quarter, 52% of the Moon is Illuminated
Nov 20
First Quarter
Nov 28
Full
Dec 6
Last Quarter
Dec 13
New
Dec 19
First Quarter

Hourly Weather History & Observations

Time (PST) Temp. Dew Point Humidity Pressure Visibility Wind Dir Wind Speed Gust Speed Precip Events Conditions
12:52 AM 50.0 °F 30.9 °F 48% 29.96 in - SSE 9.2 mph - N/A   Unknown
1:52 AM 48.9 °F 30.0 °F 48% 29.95 in - SSW 10.4 mph - N/A   Unknown
2:52 AM 51.1 °F 30.0 °F 44% 29.93 in - SSE 5.8 mph - N/A   Unknown
3:52 AM 55.9 °F 28.9 °F 36% 29.88 in - South 20.7 mph 32.2 mph N/A   Unknown
4:52 AM 54.0 °F 28.9 °F 38% 29.90 in - South 10.4 mph 20.7 mph N/A   Unknown
5:52 AM 54.0 °F 28.9 °F 38% 29.89 in - South 17.3 mph 26.5 mph N/A   Unknown
6:52 AM 55.0 °F 28.0 °F 35% 29.87 in - South 26.5 mph 36.8 mph N/A   Unknown
7:52 AM 55.0 °F 28.0 °F 35% 29.86 in - South 25.3 mph 36.8 mph N/A   Unknown
8:52 AM 55.0 °F 28.0 °F 35% 29.85 in - South 26.5 mph 38.0 mph N/A   Unknown
9:52 AM 55.9 °F 28.9 °F 36% 29.86 in - South 28.8 mph 40.3 mph N/A   Unknown
10:52 AM 57.0 °F 28.9 °F 34% 29.85 in - South 31.1 mph 42.6 mph N/A   Unknown
11:52 AM 57.9 °F 28.9 °F 33% 29.82 in - South 31.1 mph 42.6 mph N/A   Unknown
12:52 PM 57.9 °F 28.9 °F 33% 29.83 in - South 25.3 mph 36.8 mph N/A   Unknown
1:52 PM 57.9 °F 30.0 °F 35% 29.82 in - South 25.3 mph 36.8 mph N/A   Unknown
2:52 PM 59.0 °F 28.9 °F 32% 29.82 in - SSW 18.4 mph 32.2 mph N/A   Unknown
3:52 PM 57.9 °F 28.9 °F 33% 29.80 in - South 20.7 mph 32.2 mph N/A   Unknown
4:52 PM 57.9 °F 28.9 °F 33% 29.81 in - SSW 20.7 mph 33.4 mph N/A   Unknown
5:52 PM 57.0 °F 28.9 °F 34% 29.80 in - South 24.2 mph 34.5 mph N/A   Unknown
6:52 PM 55.9 °F 28.9 °F 36% 29.80 in - South 21.9 mph 32.2 mph N/A   Unknown
7:52 PM 55.0 °F 30.9 °F 40% 29.79 in - South 20.7 mph 29.9 mph N/A   Unknown
8:52 PM 55.0 °F 30.9 °F 40% 29.78 in - South 16.1 mph 28.8 mph N/A   Unknown
9:52 PM 55.0 °F 33.1 °F 43% 29.76 in - South 20.7 mph 29.9 mph N/A   Unknown
10:52 PM 57.0 °F 32.0 °F 39% 29.73 in - South 27.6 mph 39.1 mph N/A   Unknown
11:52 PM 55.0 °F 30.9 °F 40% 29.74 in - South 25.3 mph 35.7 mph N/A   Unknown